Temperature
19 17 17 18 18 20 20 20 20 20 21 22 21 20 20 20 20 20 20 20 20 20 20 20 20 20 20 20 20 20 19 19 19 18 18 18 18 18 17 17 17 17 17 17
17 18 18 19 19 19 20 20 20 20 21 21 20 20 20 19 19 20 20 20 20 20 20 20 20 20 20 20 20 19 19 19 19 19 18 18 18 18 17 17 17 17 17 17
19 19 19 19 19 19 19 19 20 20 20 21 21 20 19 19 20 20 20 20 20 20 20 20 20 20 20 20 20 19 19 19 19 18 18 18 17 17 17 17 17 17 16 16
18 19 20 20 20 19 19 20 20 20 20 18 20 19 19 18 18 18 19 19 19 20 20 20 20 20 20 20 20 19 19 19 18 18 18 18 17 17 17 17 17 17 16 16
19 19 20 20 20 20 20 20 20 20 19 18 19 18 18 18 18 18 18 19 19 20 19 20 20 20 20 19 19 19 19 19 18 18 18 18 17 17 17 17 17 16 16 16
19 20 20 20 21 20 20 19 18 16 16 18 18 18 18 17 18 19 19 19 19 19 19 19 19 19 19 19 19 19 19 18 18 18 17 17 17 17 17 17 17 16 16 16
19 20 20 21 21 20 19 18 17 18 16 17 17 18 17 18 18 18 18 19 19 19 19 19 19 19 19 19 18 18 18 18 18 17 17 17 17 17 17 17 16 16 16 16
18 18 20 20 20 19 18 18 17 18 17 17 17 17 17 18 18 18 19 19 19 19 19 19 19 19 18 18 18 18 18 18 17 17 17 17 16 16 16 16 16 16 16 16
17 18 20 20 20 20 18 17 17 16 17 17 17 17 18 18 18 17 18 18 18 18 19 19 19 19 18 18 18 18 18 18 17 17 17 16 16 16 16 16 16 16 16 16
17 18 19 20 20 19 18 16 15 16 16 17 18 18 17 18 18 17 16 17 18 18 18 18 18 18 18 18 18 18 18 18 17 17 16 16 16 16 16 16 16 15 15 15
17 18 18 19 19 19 18 17 15 14 15 16 17 17 17 17 17 16 16 17 18 18 18 18 18 18 18 18 17 17 17 17 17 16 16 16 16 16 16 15 15 15 15 15
16 15 16 18 19 19 18 17 15 16 15 14 15 16 17 16 16 16 16 17 18 18 18 18 18 18 17 17 17 17 17 17 17 16 16 16 16 16 15 15 15 15 15 15
16 15 16 17 18 18 18 17 15 14 13 13 15 17 16 15 16 16 16 17 17 17 17 17 17 17 17 17 16 16 16 16 16 16 16 16 15 15 15 15 15 15 15 15
16 14 15 16 16 17 17 17 16 15 14 15 15 17 16 16 15 15 16 16 17 17 17 17 17 17 17 16 16 16 16 16 16 16 16 15 15 15 15 15 15 14 14 14
15 15 15 16 17 17 17 17 17 16 15 16 16 16 16 15 15 15 16 16 16 16 16 16 16 16 16 16 16 16 16 16 16 15 15 15 15 15 15 14 14 14 14 14
13 14 15 16 17 17 17 17 17 17 16 16 16 16 15 15 16 15 15 15 15 16 16 16 16 16 16 16 16 16 16 16 15 15 15 15 15 15 14 14 14 14 14 14
12 13 14 14 16 17 16 16 17 16 16 16 16 16 15 14 14 15 15 15 15 16 16 16 16 16 16 16 16 16 15 15 15 15 15 14 14 14 14 14 14 13 13 13
12 12 12 13 15 15 15 16 16 16 16 15 15 15 14 14 15 15 15 15 16 16 16 16 16 16 16 16 16 15 15 15 15 15 14 14 14 14 14 13 13 13 13 13
11 12 11 12 13 14 15 16 15 15 15 15 14 14 14 14 14 14 15 16 16 16 16 16 16 15 15 15 15 15 14 14 14 14 14 14 14 13 13 13 13 13 13 13
11 11 11 11 14 14 15 15 15 15 15 14 14 13 13 14 13 14 15 15 15 15 15 15 15 15 15 15 14 14 14 14 14 14 14 13 13 13 13 13 13 13 12 12
12 11 11 12 13 13 14 14 15 15 15 14 14 14 13 13 14 15 16 15 15 15 15 15 15 14 14 14 14 14 14 14 14 13 13 13 13 13 12 12 12 12 12 12
11 11 11 11 12 13 14 14 14 14 14 14 15 15 14 15 15 15 15 15 15 15 14 14 14 14 14 14 14 13 13 13 13 13 13 13 12 12 12 12 12 12 12 12
10 11 10 11 12 12 13 13 14 15 14 15 15 15 15 15 15 15 15 14 14 14 14 14 13 13 13 13 13 13 13 13 13 12 12 12 12 12 12 12 12 12 12 11
11 10 10 10 11 12 13 14 14 15 15 15 15 15 15 15 15 14 14 14 13 13 13 13 13 13 13 13 13 12 13 12 12 12 12 12 11 11 11 11 11 11 11 11
10 10 10 10 11 12 13 14 14 14 15 15 15 14 14 14 14 14 14 13 13 13 13 13 13 12 12 12 12 12 12 12 12 11 11 11 11 11 11 11 11 11 11 11
9 9 10 10 11 10 12 13 14 14 14 14 14 14 14 14 14 14 13 13 13 13 12 12 12 12 12 12 12 12 11 11 11 11 11 11 11 11 11 10 10 10 10 10
Wind_Speed
3 4 4 7 7 5 4 2 4 6 4 1 3 4 5 3 3 4 5 7 8 8 5 4 6 7 7 6 7 7 7 6 6 4 3 2 2 2 1 2 3 4 4 4
4 3 7 4 5 4 3 2 4 5 2 1 2 3 3 3 5 6 7 8 8 6 5 5 6 6 7 7 7 7 7 7 7 5 4 3 2 1 1 1 2 3 4 4
6 6 3 5 4 4 4 6 5 4 4 3 1 3 3 2 2 2 3 5 7 9 9 7 7 7 7 8 9 8 7 7 6 5 4 3 2 2 1 0 0 1 4 4
5 5 3 4 5 6 6 7 6 3 1 3 1 2 5 3 3 3 4 4 6 7 7 7 7 7 7 7 6 7 7 6 6 6 6 6 4 3 3 2 1 1 2 3
6 4 5 6 7 8 7 3 4 2 3 1 1 3 7 2 4 6 6 7 7 7 8 8 7 6 5 5 5 5 6 5 5 6 7 6 4 3 2 2 2 2 1 2
6 4 5 6 4 6 4 5 5 5 4 1 4 4 6 4 6 6 6 6 7 7 7 7 6 5 4 4 5 5 5 4 4 5 5 6 6 4 4 3 3 2 1 1
4 4 3 3 2 2 5 5 3 3 2 5 2 4 7 6 5 6 7 6 6 6 7 7 7 7 6 6 6 6 6 5 4 5 5 5 5 5 6 5 4 3 2 1
2 6 4 3 5 5 5 9 7 5 5 4 1 5 6 5 3 2 3 3 3 5 6 7 7 7 7 8 7 7 7 6 5 5 4 4 4 4 3 4 3 3 2 2
5 6 4 3 3 7 6 5 7 6 2 1 4 5 6 2 2 1 1 2 2 3 5 6 6 7 7 8 8 8 8 6 5 5 4 4 3 3 3 2 3 2 2 2
7 4 5 2 4 3 5 8 5 5 5 3 4 3 4 4 4 2 1 2 3 3 3 5 5 6 6 6 6 6 7 7 6 5 5 4 3 3 3 3 3 2 2 2
5 4 4 2 3 5 4 4 5 4 5 6 3 6 5 6 5 4 4 3 3 3 4 4 4 4 5 5 6 6 6 6 6 6 5 4 3 3 3 3 3 3 2 2
3 5 3 5 4 3 4 6 7 5 3 4 4 6 4 3 4 4 3 2 1 1 2 3 4 5 5 5 5 6 6 6 6 5 5 4 4 3 3 2 2 2 2 2
4 5 1 5 4 2 2 3 4 5 5 5 5 5 3 2 0 1 2 1 1 1 1 2 3 5 5 5 5 6 6 6 5 5 5 4 3 3 3 3 2 2 2 2
4 4 6 8 6 3 2 2 4 5 4 5 6 6 4 3 2 1 1 2 2 1 2 2 3 3 4 5 5 5 5 6 6 6 6 5 4 3 3 2 2 3 3 3
4 3 3 3 3 3 2 3 5 5 7 7 7 6 6 5 4 3 2 2 3 2 1 2 2 3 4 4 4 5 5 5 6 6 6 5 4 3 2 2 3 3 3 3
3 3 2 1 1 2 2 3 5 5 5 5 4 5 6 2 2 2 2 3 3 3 3 2 2 3 4 5 5 4 4 5 6 6 5 4 3 3 3 3 3 2 2 2
1 4 3 3 3 1 4 5 6 5 4 6 7 7 2 2 3 5 4 4 4 4 3 3 3 3 4 4 5 5 5 4 5 5 4 3 3 3 3 3 3 3 2 2
4 4 3 2 1 5 6 2 3 5 4 4 4 4 4 5 4 3 3 4 4 3 3 3 3 3 3 3 3 4 5 5 4 4 3 3 3 3 2 2 2 2 2 2
5 6 4 3 3 4 4 2 2 3 3 3 4 3 2 2 3 1 1 3 4 4 3 3 3 3 3 3 4 4 4 4 3 3 3 3 3 3 3 2 2 2 2 2
4 4 5 4 3 5 5 2 1 2 3 3 3 3 3 4 2 4 2 2 2 1 2 2 3 3 3 3 4 5 4 3 3 3 3 3 3 3 3 3 2 1 2 2
3 3 3 3 3 5 5 4 1 4 6 3 4 4 5 5 5 3 3 3 3 2 2 3 4 3 3 4 5 5 4 3 3 3 2 2 2 3 3 2 2 2 2 1
3 3 3 4 3 6 3 0 4 5 2 2 4 4 5 4 2 2 4 4 4 3 3 3 3 2 2 3 5 5 4 4 3 3 3 2 2 2 2 2 2 2 3 2
2 4 4 5 6 5 2 4 4 3 3 3 3 3 5 5 4 3 3 4 4 3 3 3 3 2 1 2 4 4 4 3 3 3 2 2 2 1 2 2 2 2 2 2
2 0 2 2 4 4 3 3 2 1 2 2 2 3 5 5 5 5 4 3 3 3 3 3 4 3 2 1 2 3 3 3 3 3 2 2 2 1 1 1 2 2 2 2
3 0 0 3 4 4 4 3 2 0 1 1 1 2 3 5 5 5 4 4 3 3 2 3 3 3 3 2 2 2 2 3 3 3 2 2 2 3 2 1 1 2 3 4
3 3 3 5 5 3 5 5 3 1 1 1 2 1 2 4 5 4 4 3 3 3 2 2 2 2 2 1 2 2 2 3 4 3 3 3 3 2 2 2 0 1 1 2
Wind_Direction
79 89 197 210 189 181 170 190 259 265 272 256 247 253 256 227 192 189 189 185 191 199 186 160 165 165 158 157 166 173 175 170 157 156 162 167 200 205 190 192 180 171 163 158
53 258 230 190 169 171 180 234 266 289 310 189 246 268 261 210 210 203 194 190 194 185 162 164 161 161 163 169 177 179 181 170 168 172 167 170 165 177 188 167 158 172 168 158
188 233 188 159 173 188 216 207 228 246 342 27 96 334 313 283 257 228 209 193 186 186 184 181 176 177 173 179 183 185 180 174 170 159 133 116 89 71 81 100 158 175 176 170
226 248 185 183 203 174 242 225 207 216 69 290 94 266 282 268 266 236 221 203 197 195 186 182 183 185 188 192 178 173 167 163 166 157 159 164 169 178 197 188 181 154 159 163
235 209 186 208 216 176 213 203 177 190 172 262 353 170 279 293 258 242 227 216 210 197 186 184 185 185 183 172 162 159 151 150 157 166 172 167 166 169 148 131 138 137 138 146
237 230 203 212 214 178 166 76 57 55 88 231 234 176 268 239 235 251 232 220 212 192 183 180 177 164 162 156 154 151 148 150 157 165 167 164 162 153 144 148 156 161 156 145
298 283 248 189 127 98 109 95 37 359 7 246 245 177 245 255 247 234 223 216 211 187 179 176 174 171 169 167 168 163 159 162 164 167 172 172 170 166 165 168 172 165 165 183
214 279 248 198 180 182 171 147 161 195 217 263 284 222 255 271 277 239 204 188 183 179 180 182 183 178 178 178 173 169 172 174 171 173 177 171 162 166 173 174 168 174 187 202
192 252 282 237 187 146 146 174 166 142 163 207 265 276 300 321 354 42 89 128 180 183 184 181 180 181 180 179 179 177 173 170 174 174 166 157 161 165 170 169 167 171 179 185
172 234 282 270 85 57 141 144 110 132 158 228 275 264 256 257 260 265 245 211 206 194 186 180 183 184 180 177 174 167 165 166 167 164 164 157 160 170 167 157 161 171 177 162
157 182 298 18 168 182 115 110 114 126 155 164 227 262 238 221 218 211 223 224 201 187 187 189 187 174 167 161 160 160 157 149 147 153 150 142 148 155 153 163 178 181 180 170
157 140 244 265 260 190 155 158 144 153 204 176 176 257 289 224 222 205 217 220 208 160 165 170 154 149 158 161 162 159 154 148 150 149 143 147 148 145 151 169 186 177 181 186
143 128 89 335 344 30 106 141 144 130 127 158 172 251 327 20 22 211 203 183 126 110 107 120 134 147 158 162 162 155 154 153 149 147 141 141 155 159 170 180 191 183 185 195
134 131 172 200 218 202 199 179 154 132 155 191 210 230 288 300 277 263 225 165 129 130 125 136 151 160 160 159 156 154 158 158 156 155 153 160 180 186 180 182 190 192 190 193
119 163 201 224 231 188 201 210 175 175 186 188 215 211 243 242 231 225 194 150 136 138 132 153 159 162 159 155 155 155 155 157 156 158 164 178 185 177 172 193 201 194 190 201
78 158 167 277 264 211 242 240 201 200 194 195 191 238 249 240 151 152 177 168 175 183 181 177 155 157 166 168 167 159 152 162 152 154 165 176 178 181 189 200 201 185 192 207
130 137 137 239 280 358 257 232 205 200 200 184 205 226 203 182 194 196 201 197 199 201 191 181 178 181 183 183 172 166 165 150 141 148 157 170 173 179 190 185 173 184 196 204
159 142 145 172 97 223 243 271 204 188 211 199 198 211 196 206 206 198 195 192 195 197 201 194 185 177 183 171 152 152 148 147 147 150 159 160 162 169 167 166 182 189 191 198
172 149 137 143 183 265 291 289 170 177 244 228 207 215 179 133 86 3 260 209 204 200 194 188 182 174 162 154 148 130 128 138 142 159 179 180 173 170 167 175 196 195 182 193
82 110 126 135 163 227 247 279 281 135 263 256 200 193 171 133 153 253 237 194 197 182 162 159 149 138 138 149 142 135 142 145 167 188 192 184 177 174 182 190 184 186 192 198
70 78 133 160 202 257 266 293 115 167 237 236 191 187 174 182 204 218 171 169 166 156 148 140 138 142 154 154 145 146 157 186 209 192 176 170 180 185 187 174 173 176 186 183
165 151 170 153 188 251 281 119 190 223 245 203 198 193 185 186 161 146 156 161 155 145 137 137 135 139 148 147 149 158 188 207 192 175 172 177 182 190 182 164 183 185 176 173
199 192 191 190 212 250 271 233 253 215 212 219 204 204 177 169 171 164 162 162 163 163 157 148 148 144 143 141 155 173 209 197 169 161 172 178 172 176 175 168 169 175 170 174
294 102 161 252 275 285 296 293 299 206 208 230 200 184 167 167 167 162 159 165 168 166 168 165 156 163 190 169 162 193 202 164 153 166 185 179 173 178 170 168 174 183 196 209
258 256 246 269 286 319 328 321 291 268 99 90 112 155 168 159 164 167 168 179 179 171 174 166 172 188 213 206 191 202 186 156 163 177 186 183 181 176 168 173 191 201 219 214
224 197 199 239 250 231 274 293 296 276 253 201 160 146 155 162 169 163 172 183 175 171 167 165 186 201 215 209 224 215 188 174 176 188 193 196 192 185 179 176 222 4 240 236
Height
1480 1486 1491 1489 1488 1490 1491 1495 1497 1492 1484 1486 1488 1488 1485 1483 1484 1484 1485 1486 1488 1490 1493 1495 1498 1500 1503 1505 1507 1509 1511 1512 1514 1516 1517 1518 1519 1521 1522 1523 1524 1525 1526 1527
1485 1488 1482 1482 1485 1487 1490 1495 1495 1489 1483 1485 1489 1488 1484 1483 1483 1482 1483 1485 1486 1489 1491 1493 1496 1498 1500 1503 1505 1507 1509 1510 1512 1514 1515 1517 1519 1520 1521 1523 1523 1524 1525 1526
1484 1482 1478 1481 1484 1489 1490 1493 1492 1491 1486 1485 1489 1492 1488 1484 1483 1483 1483 1483 1485 1487 1488 1491 1493 1495 1498 1499 1502 1505 1507 1508 1510 1512 1514 1516 1518 1519 1520 1521 1522 1523 1524 1525
1480 1476 1477 1480 1482 1485 1492 1483 1485 1487 1494 1500 1493 1507 1493 1486 1484 1482 1482 1482 1483 1485 1487 1489 1491 1493 1495 1497 1500 1502 1504 1506 1508 1510 1512 1513 1515 1516 1518 1520 1521 1523 1524 1525
1478 1474 1476 1479 1477 1479 1482 1478 1482 1486 1493 1500 1498 1505 1499 1488 1486 1482 1479 1479 1480 1482 1484 1487 1489 1491 1494 1496 1498 1501 1502 1504 1506 1509 1511 1512 1514 1515 1517 1519 1520 1522 1523 1524
1473 1470 1470 1471 1470 1472 1475 1481 1487 1495 1500 1509 1500 1504 1502 1491 1483 1478 1476 1476 1478 1480 1482 1485 1488 1491 1493 1495 1497 1499 1501 1503 1505 1507 1509 1510 1512 1513 1515 1517 1518 1520 1521 1523
1476 1470 1466 1466 1470 1472 1477 1493 1508 1509 1517 1512 1498 1500 1497 1480 1475 1474 1473 1474 1475 1477 1480 1483 1485 1488 1490 1493 1495 1497 1499 1501 1503 1505 1507 1509 1511 1512 1513 1515 1517 1518 1520 1521
1484 1483 1467 1464 1467 1474 1478 1487 1507 1515 1517 1510 1499 1500 1487 1474 1472 1471 1471 1472 1474 1476 1478 1480 1483 1485 1488 1490 1492 1495 1497 1499 1501 1503 1505 1507 1509 1510 1512 1514 1515 1517 1518 1519
1483 1481 1464 1461 1461 1467 1478 1484 1485 1501 1504 1509 1503 1493 1481 1472 1471 1470 1471 1472 1473 1474 1476 1478 1481 1483 1485 1487 1490 1492 1494 1497 1499 1502 1504 1506 1507 1509 1510 1512 1514 1515 1516 1518
1472 1478 1466 1462 1462 1466 1470 1477 1491 1500 1510 1512 1501 1495 1491 1477 1474 1472 1471 1472 1472 1473 1475 1476 1479 1481 1483 1485 1488 1490 1492 1495 1497 1499 1502 1503 1506 1508 1509 1511 1512 1513 1515 1516
1467 1476 1472 1466 1467 1470 1474 1480 1488 1497 1499 1508 1510 1500 1476 1473 1471 1471 1471 1470 1471 1472 1473 1475 1477 1479 1482 1484 1486 1489 1491 1493 1495 1498 1500 1502 1504 1506 1507 1509 1510 1512 1513 1514
1467 1475 1480 1472 1463 1462 1466 1473 1483 1493 1498 1501 1504 1497 1469 1469 1468 1469 1469 1469 1470 1472 1473 1474 1476 1478 1481 1482 1485 1487 1489 1492 1494 1497 1499 1501 1503 1504 1505 1507 1508 1510 1511 1512
1466 1476 1485 1481 1476 1468 1468 1471 1475 1483 1494 1501 1501 1491 1469 1468 1468 1468 1468 1469 1470 1471 1472 1474 1475 1477 1479 1481 1484 1486 1488 1491 1493 1496 1497 1499 1501 1502 1503 1504 1506 1507 1508 1509
1462 1473 1480 1483 1478 1472 1471 1471 1474 1480 1491 1494 1489 1481 1472 1469 1468 1468 1468 1469 1470 1472 1472 1473 1474 1476 1478 1480 1482 1485 1487 1489 1492 1494 1495 1497 1499 1500 1501 1502 1504 1505 1506 1507
1461 1471 1471 1470 1466 1467 1467 1468 1470 1474 1477 1482 1478 1476 1471 1468 1467 1467 1468 1468 1470 1471 1471 1472 1473 1475 1477 1479 1481 1484 1485 1487 1489 1492 1494 1495 1497 1498 1500 1501 1502 1503 1504 1505
1464 1469 1469 1469 1465 1466 1467 1466 1467 1468 1470 1472 1472 1473 1465 1465 1466 1467 1467 1468 1468 1469 1471 1472 1473 1475 1476 1478 1480 1482 1484 1486 1488 1490 1492 1494 1495 1496 1497 1498 1500 1500 1501 1502
1467 1469 1474 1476 1468 1466 1473 1465 1465 1465 1465 1466 1470 1467 1464 1465 1464 1464 1465 1465 1466 1468 1470 1471 1472 1474 1475 1477 1478 1480 1482 1484 1486 1488 1489 1491 1493 1494 1495 1496 1497 1498 1499 1500
1466 1470 1476 1478 1474 1481 1470 1459 1459 1460 1461 1461 1461 1461 1461 1462 1462 1463 1463 1464 1465 1466 1468 1470 1472 1473 1474 1476 1477 1479 1481 1483 1484 1486 1487 1489 1490 1492 1493 1494 1494 1495 1497 1497
1461 1467 1476 1481 1480 1475 1465 1459 1459 1461 1462 1459 1460 1459 1460 1461 1462 1464 1464 1464 1464 1465 1467 1469 1470 1472 1473 1475 1476 1478 1479 1481 1482 1484 1485 1487 1488 1489 1489 1490 1491 1493 1494 1495
1461 1464 1473 1479 1478 1479 1467 1457 1456 1460 1464 1457 1457 1458 1459 1461 1466 1464 1462 1463 1464 1465 1466 1468 1469 1471 1472 1473 1475 1476 1477 1478 1480 1481 1483 1484 1485 1486 1487 1488 1489 1490 1491 1492
1467 1470 1473 1476 1477 1471 1460 1456 1456 1468 1464 1455 1455 1456 1457 1458 1459 1460 1460 1462 1463 1464 1465 1467 1468 1469 1470 1472 1473 1474 1475 1476 1477 1479 1480 1481 1483 1484 1484 1485 1486 1487 1488 1489
1468 1471 1473 1475 1477 1472 1456 1456 1458 1457 1453 1452 1453 1454 1455 1455 1457 1458 1459 1460 1461 1463 1464 1466 1467 1468 1469 1470 1472 1473 1474 1475 1476 1477 1478 1479 1480 1481 1482 1482 1483 1484 1485 1486
1467 1467 1467 1468 1467 1458 1455 1454 1453 1452 1452 1452 1452 1452 1453 1454 1455 1457 1458 1459 1460 1462 1463 1465 1466 1467 1468 1469 1470 1471 1472 1474 1474 1475 1476 1476 1478 1479 1480 1480 1480 1481 1482 1482
1463 1462 1463 1463 1459 1455 1454 1452 1452 1452 1451 1451 1451 1452 1452 1453 1454 1455 1457 1458 1459 1461 1462 1463 1465 1465 1466 1467 1468 1469 1470 1471 1472 1472 1473 1474 1475 1476 1477 1478 1478 1478 1479 1480
1463 1462 1462 1461 1457 1454 1452 1452 1451 1451 1450 1450 1451 1452 1452 1453 1454 1455 1456 1457 1458 1459 1461 1462 1463 1464 1465 1466 1467 1468 1468 1469 1469 1470 1471 1472 1472 1473 1474 1475 1475 1476 1477 1478
1460 1461 1462 1460 1456 1455 1453 1451 1451 1450 1449 1449 1450 1451 1452 1452 1453 1454 1455 1456 1457 1458 1459 1461 1462 1462 1463 1464 1465 1465 1466 1467 1467 1467 1468 1469 1470 1470 1471 1472 1472 1473 1475 1475